Meteo Giornale » Osservazioni meteo Gran Bretagna » Sumburgh Cape
ore: 05:20 - Osservazioni Meteo Sumburgh Cape
Lat. 59° 53' N Lon. 1° 18' W Alt. 5 metri s.l.m.
12 °C
Sereno
Temp. 24 Ore
12 °C
15 °C
Sud/Sud-Ovest
18.5 Km/h
Dew point 11 °C
Umidità 93 %
Visibilità 10 Km
Il sole sorge alle ore 06:00
Il sole tramonta alle ore 20:09
| Data e Ora | Cielo e Fenomeni | T °C | DP °C | Um. % | Pres. hPa | Vis. km | Vento km/h | |
|---|---|---|---|---|---|---|---|---|
| Oggi h: 05:20 | Sereno | 12 | 11 | 93 | 1008 | 10 | S/SO 18.5 | |
| Oggi h: 04:50 | Molto Nuvoloso | 12 | 11 | 93 | 1008 | 10 | SO 18.5 | |
| Oggi h: 04:20 | Nuvoloso | 12 | 11 | 93 | 1008 | 10 | SO 18.5 | |
| Oggi h: 03:50 | Nuvoloso | 12 | 11 | 93 | 1008 | 10 | SO 18.5 | |
| Oggi h: 03:20 | Coperto | 13 | 10 | 81 | 1008 | 10 | SO 18.5 | |
| Oggi h: 02:50 | Coperto | 12 | 10 | 87 | 1009 | 10 | SO 14.8 | |
| Oggi h: 02:20 | Coperto | 12 | 11 | 93 | 1009 | 10 | SO 16.7 | |
| Oggi h: 01:50 | Nuvoloso | 12 | 10 | 87 | 1009 | 10 | O/SO 16.7 | |
| Oggi h: 01:20 | Sereno | 12 | 10 | 87 | 1009 | 10 | O/SO 16.7 | |
| Oggi h: 00:50 | Sereno | 12 | 10 | 87 | 1009 | 10 | O/SO 20.3 | |
| Oggi h: 00:20 | Sereno | 12 | 9 | 81 | 1009 | 10 | O 22.2 | |
| Ieri h: 23:50 | Sereno | 12 | 9 | 81 | 1009 | 10 | O 18.5 | |
| Ieri h: 23:20 | Sereno | 12 | 8 | 76 | 1009 | 10 | O 18.5 | |
| Ieri h: 22:50 | Sereno | 12 | 8 | 76 | 1009 | 10 | O/NO 24 | |
| Ieri h: 22:20 | Molto Nuvoloso | 12 | 8 | 76 | 1009 | 10 | O 25.9 | |
| Ieri h: 21:50 | Coperto | 12 | 8 | 76 | 1009 | 10 | O/NO 24 | |
| Ieri h: 21:20 | Nuvoloso | 12 | 8 | 76 | 1009 | 10 | O/NO 20.3 | |
| Ieri h: 20:50 | Molto Nuvoloso | 12 | 9 | 81 | 1009 | 10 | O/NO 25.9 | |
| Ieri h: 20:20 | Coperto | 12 | 10 | 87 | 1008 | 10 | O/NO 24 | |
| Ieri h: 19:50 | Molto Nuvoloso | 12 | 10 | 87 | 1008 | 10 | O 20.3 | |
| Ieri h: 19:20 | Molto Nuvoloso | 12 | 11 | 93 | 1007 | 10 | O 25.9 | |
| Ieri h: 18:50 | Pioggia nelle vicinanze | 13 | 12 | 93 | 1007 | 9 | O/SO 22.2 | |
| Ieri h: 18:20 | Pioviggine | 13 | 12 | 93 | 1007 | 8 | S/SO 18.5 | |
| Ieri h: 17:50 | Pioviggine | 14 | 12 | 87 | 1007 | 10 | S/SO 16.7 | |
| Ieri h: 17:20 | Molto Nuvoloso | 14 | 12 | 87 | 1007 | 10 | S 16.7 | |
| Ieri h: 16:50 | Molto Nuvoloso | 14 | 12 | 87 | 1007 | 10 | S 14.8 | |
| Ieri h: 16:20 | Pioggia nelle vicinanze | 14 | 12 | 87 | 1007 | 10 | S 11.1 | |
| Ieri h: 15:50 | Nuvoloso | 14 | 11 | 82 | 1007 | 10 | S 14.8 | |
| Ieri h: 15:20 | Molto Nuvoloso | 14 | 11 | 82 | 1007 | 10 | S 11.1 | |
| Ieri h: 14:50 | Molto Nuvoloso | 14 | 11 | 82 | 1007 | 10 | S 11.1 | |
| Ieri h: 14:20 | Molto Nuvoloso | 15 | 11 | 76 | 1006 | 10 | S 11.1 | |
| Ieri h: 13:50 | Molto Nuvoloso | 15 | 10 | 72 | 1006 | 10 | S/SE 11.1 | |
| Ieri h: 13:20 | Molto Nuvoloso | 14 | 11 | 82 | 1006 | 10 | S 13 | |
| Ieri h: 12:50 | Molto Nuvoloso | 15 | 11 | 76 | 1006 | 10 | S/SE 14.8 | |
| Ieri h: 12:20 | Molto Nuvoloso | 14 | 10 | 76 | 1006 | 10 | S/SE 14.8 | |
| Ieri h: 11:50 | Molto Nuvoloso | 14 | 11 | 82 | 1006 | 10 | SE 16.7 | |
| Ieri h: 11:20 | Molto Nuvoloso | 14 | 11 | 82 | 1006 | 10 | SE 13 | |
| Ieri h: 10:50 | Molto Nuvoloso | 14 | 11 | 82 | 1006 | 10 | E/SE 18.5 | |
| Ieri h: 10:20 | Molto Nuvoloso | 14 | 11 | 82 | 1006 | 10 | E/SE 18.5 | |
| Ieri h: 09:50 | Molto Nuvoloso | 14 | 10 | 76 | 1006 | 10 | E/SE 14.8 | |
| Ieri h: 09:20 | Molto Nuvoloso | 13 | 10 | 81 | 1006 | 10 | E/SE 16.7 | |
| Ieri h: 08:50 | Molto Nuvoloso | 13 | 10 | 81 | 1005 | 10 | E/SE 18.5 | |
| Ieri h: 08:20 | Molto Nuvoloso | 13 | 10 | 81 | 1005 | 10 | E 18.5 | |
| Ieri h: 07:50 | Molto Nuvoloso | 13 | 10 | 81 | 1005 | 10 | E 22.2 | |
| Ieri h: 07:20 | Molto Nuvoloso | 13 | 9 | 76 | 1005 | 10 | E 20.3 | |
| Ieri h: 06:50 | Molto Nuvoloso | 12 | 9 | 81 | 1005 | 10 | E 22.2 | |
| Ieri h: 06:20 | Coperto | 12 | 8 | 76 | 1005 | 10 | E 22.2 | |
| Ieri h: 05:50 | Coperto | 12 | 8 | 76 | 1005 | 10 | E 22.2 | |



